Location: Long Barn
(38.0930°N, 120.1344°W)
Time: 00:51:06
(UTC+00:00)

Meteor 1-16 Rocket - Pass Details

Date: 05 August 2024
Orbit: 789 x 906 km, 81.2° (Epoch: 08 September)

Event Time Altitude Azimuth Distance (km) Brightness Sun altitude
Rises 12:18:23 0° 185° (S) 3,507 7.1 -9.5°
Reaches altitude 10° 12:20:51 10° 184° (S) 2,562 6.4 -9.1°
Maximum altitude 12:26:42 83° 98° (E) 894 4.4 -8.1°
Drops below altitude 10° 12:32:26 10° 11° (N) 2,513 7.3 -7.1°
Sets 12:34:51 0° 10° (N) 3,436 8.0 -6.6°
